Notices

What's New in latest Release from April 7th, 2021:

- Updated Glossary, including Speed of Maximum Gust, and Total Hourly Precipitation

- Updated national and regional climate services offices contacts and prices information

- Addition of station inventory lists for 1981-2010, 1971-2000, and 1961-1990 Normals.

If you haven't already, please take our survey and provide feedback about our website: https://eccc.sondage-survey.ca/f/LanguageSelection.aspx?s=442ca660-fcf1-47c0-95a9-59707d6fd709

Hourly Data Report for April 03, 2003

TORONTO CITY
ONTARIO

43°40'00.000" N
79°24'00.000" W
112.50 m
6158355
71508
XTO

Download Data

Hourly Data (April 2003)
Hourly Data Report for April 3, 2003
TIME
LST
Temp Definition
°C
Dew Point Definition
°C
Rel Hum Definition
%
Precip. Amount Definition
mm

Wind Dir Definition
10's deg

Wind Spd Definition
km/h
Visibility Definition
km
Stn Press Definition
kPa
Hmdx Definition


Wind Chill Definition


Weather Definition


00:00 2.1 -0.4 83   LegendMM LegendMM LegendMM 100.44     LegendNANA
01:00 2.0 -0.3 85   LegendMM LegendMM LegendMM 100.43     LegendNANA
02:00 1.6 -0.7 85   LegendMM LegendMM LegendMM 100.40     LegendNANA
03:00 1.3 -1.0 85   LegendMM LegendMM LegendMM 100.35     LegendNANA
04:00 1.0 -1.2 85   LegendMM LegendMM LegendMM 100.38     LegendNANA
05:00 0.8 -1.7 83   LegendMM LegendMM LegendMM 100.39     LegendNANA
06:00 0.1 -2.1 85   LegendMM LegendMM LegendMM 100.43     LegendNANA
07:00 -0.5 -1.7 92   LegendMM LegendMM LegendMM 100.50     LegendNANA
08:00 -0.6 -1.7 92   LegendMM LegendMM LegendMM 100.54     LegendNANA
09:00 -0.9 -2.1 92   LegendMM LegendMM LegendMM 100.57     LegendNANA
10:00 -1.3 -2.4 92   LegendMM LegendMM LegendMM 100.61     LegendNANA
11:00 -1.4 -2.5 92   LegendMM LegendMM LegendMM 100.62     LegendNANA
12:00 -1.5 -2.7 92   LegendMM LegendMM LegendMM 100.68     LegendNANA
13:00 -1.4 -2.9 89   LegendMM LegendMM LegendMM 100.61     LegendNANA
14:00 -1.4 -2.6 92   LegendMM LegendMM LegendMM 100.58     LegendNANA
15:00 -1.4 -3.2 88   LegendMM LegendMM LegendMM 100.55     LegendNANA
16:00 -1.8 -4.1 84   LegendMM LegendMM LegendMM 100.53     LegendNANA
17:00 -1.9 -3.3 90   LegendMM LegendMM LegendMM 100.46     LegendNANA
18:00 -2.1 -3.6 89   LegendMM LegendMM LegendMM 100.43     LegendNANA
19:00 -2.3 -4.1 87   LegendMM LegendMM LegendMM 100.52     LegendNANA
20:00 -2.4 -4.1 88   LegendMM LegendMM LegendMM 100.55     LegendNANA
21:00 -2.6 -3.7 92   LegendMM LegendMM LegendMM 100.41     LegendNANA
22:00 -2.5 -3.6 92   LegendMM LegendMM LegendMM 100.35     LegendNANA
23:00 -2.8 -3.9 92   LegendMM LegendMM LegendMM 100.35     LegendNANA

Notes on Data Quality.

Legend

  • E = Estimated
  • M = Missing
  • NA = Not Available*
  • [empty] = Indicates an unobserved value
Date modified: